Orbital Elements at Epoch 2459200.5 (2020-Dec-17.0) TDB
Reference: JPL 20 (heliocentric ecliptic J2000)
Element | Value | Uncertainty (1-sigma) | Units |
e | .2056437368783096 | 3.6749e-08 | |
a | 3.123673437835396 | 1.8984e-08 | au |
q | 2.481309559291409 | 1.1916e-07 | au |
i | 10.36517526419481 | 5.8e-06 | deg |
node | 130.1182033300942 | 2.1996e-05 | deg |
peri | 300.69886775 | 2.721e-05 | deg |
M | 289.0075678148409 | 1.6925e-05 | deg |
tp | 2459598.154973185699 (2022-Jan-18.65497319) | 9.6288e-05 | TDB |
period | 2016.493673205609 5.52 | 1.8383e-05 5.033e-08 | d yr |
n | .178527711137179 | 1.6275e-09 | deg/d |
Q | 3.766037316379383 | 2.2888e-08 | au |
|
| | Orbit Determination Parameters
Additional Information
|